Flag for U.S.A. Weather past 2 weeks in Kalamazoo, Michigan, U.S.A.

Now
44 °F

Overcast.


Feels Like: 39 °F
Forecast: 40 / 49 °F
Wind: 10 mph from West

Location: Kalamazoo / Battle Creek International Airport

Current Time: Apr 20, 2015 at 11:27:46 PM

Latest Report: Apr 20, 2015 at 10:53 PM


Visibility: 10 mi

Pressure: 29.60 "Hg

Humidity: 68%

Dew point: 34 °F

Location of KalamazooLocation

Historic Weather in Kalamazoo — Graph

°F

Kalamazoo temperature yesterday

Maximum temperature yesterday: 72 °F (at 1:53 PM)
Minimum temperature yesterday: 49 °F (at 4:53 AM)
Average temperature yesterday: 56 °F

Past Weeks' High & Low Weather Summary

 TemperatureHumidityPressure
High78 °F (Apr 18, 4:53 PM)97% (Apr 9, 9:53 AM)30.34 "Hg (Apr 9, 9:53 AM)
Low34 °F (Apr 11, 4:53 AM)16% (Apr 15, 4:53 PM)29.19 "Hg (Apr 20, 2:53 AM)
Average53 °F61%29.99 "Hg
* Reported Apr 5 9:53 PM — Apr 20 9:53 PM, Kalamazoo, Weather by CustomWeather, © 2015

Note: Actual official high and low records may vary slightly from our data, if they occured in-between our weather recording intervals... More about our weather records

Advertising

Kalamazoo weather history for previous 24 hours

 ConditionsComfort  
Time TempWeatherWind HumidityBarometerVisibility
9:53 PM
Mon, Apr 20
44 °FMostly cloudy.12 mph71%29.59 "Hg10 mi
8:53 PM44 °FMore clouds than sun.13 mph73%29.57 "Hg10 mi
7:53 PM44 °FOvercast.10 mph79%29.55 "Hg10 mi
6:53 PM44 °FLight rain. Mostly cloudy.14 mph85%29.53 "Hg8 mi
5:53 PM45 °FLight rain. Mostly cloudy.16 mph82%29.51 "Hg7 mi
4:53 PM45 °FLight rain. Fog.13 mph86%29.48 "Hg2 mi
3:53 PM46 °FLight rain. Fog.21 mph86%29.44 "Hg3 mi
2:53 PM48 °FLight rain. Fog.18 mph86%29.40 "Hg2 mi
1:53 PM50 °FLight rain. Fog.28 mph83%29.35 "Hg6 mi
12:53 PM52 °FMostly cloudy.17 mph80%29.32 "Hg10 mi
11:53 AM54 °FOvercast.20 mph80%29.28 "Hg10 mi
10:53 AM58 °FMostly cloudy.20 mph81%29.24 "Hg10 mi
9:53 AM57 °FFog.12 mph87%29.24 "Hg4 mi
8:53 AM56 °FFog.13 mph90%29.26 "Hg4 mi
8:01 AM54 °FFog.10 mph90%29.26 "Hg2 mi
7:51 AM54 °FFog.14 mph90%29.26 "Hg2 mi
6:53 AM54 °FLow clouds.18 mph83%29.26 "Hg10 mi
5:53 AM54 °FLight rain. Low clouds.20 mph86%29.23 "Hg10 mi
4:53 AM54 °FFog.21 mph90%29.21 "Hg6 mi
3:53 AM57 °FLight rain. Mostly cloudy.20 mph90%29.19 "Hg10 mi
2:53 AM59 °FLight rain. Fog.9 mph93%29.19 "Hg4 mi
2:04 AM58 °FLight rain. Fog.8 mph93%29.22 "Hg3 mi
1:53 AM58 °FLight rain. Fog.8 mph93%29.22 "Hg2 mi
12:53 AM56 °FLight rain. Fog.8 mph93%29.25 "Hg2 mi
11:53 PM
Sun, Apr 19
54 °FLight rain. Low clouds.6 mph93%29.29 "Hg10 mi
Weather by CustomWeather, © 2015

See weather overviewHow to use our weather pages